Home   Weather   Nome   Past weeks

Flag for USA Past Weather in Nome, Alaska, USA — Yesterday and Last 2 Weeks

Now
36 °F

Light rain. More clouds than sun.


Feels Like: 36 °F
Forecast: 36 / 40 °F
Wind: No wind

Location: Nome Airport

Current Time: May 27, 2017 at 9:24:23 am

Latest Report: May 27, 2017 at 9:00 am


Visibility: 10 mi

Pressure: 29.84 "Hg

Humidity: 100%

Dew Point: 36 °F

Location of NomeLocation

Past Weather in Nome — Graph

°F

Nome Temperature Yesterday

Maximum temperature yesterday: 37 °F (at 7:53 pm)
Minimum temperature yesterday: 31 °F (at 1:32 am)
Average temperature yesterday: 34 °F

High & Low Weather Summary for the Past Weeks

 TemperatureHumidityPressure
High60 °F (May 12, 8:53 pm)100% (May 13, 4:53 pm)29.90 "Hg (May 13, 4:53 pm)
Low26 °F (May 15, 1:53 am)26% (May 12, 11:53 am)29.43 "Hg (May 24, 12:53 pm)
Average38 °F84%29.73 "Hg
* Reported May 12 7:53 am — May 27 7:53 am, Nome. Weather by CustomWeather, © 2017

Note: Actual official high and low records may vary slightly from our data, if they occured in-between our weather recording intervals... More about our weather records

Advertising

Nome Weather History for the Previous 24 Hours

Scroll right to see more
 ConditionsComfort  
Time TempWeatherWind HumidityBarometerVisibility
7:53 am
Sat, May 27
35 °FLight rain. Overcast.6 mph100%29.83 "Hg9 mi
6:53 am36 °FLight rain. Fog.3 mph100%29.83 "Hg5 mi
6:25 am37 °FLow clouds.3 mph100%29.83 "Hg10 mi
5:53 am36 °FOvercast.6 mph100%29.82 "Hg10 mi
4:53 am37 °FLight rain. Overcast.7 mph100%29.82 "Hg10 mi
4:21 am37 °FLight rain. Mostly cloudy.8 mph100%29.81 "Hg10 mi
4:02 am37 °FMostly cloudy.9 mph100%29.81 "Hg10 mi
3:35 am37 °FOvercast.10 mph100%29.81 "Hg10 mi
3:14 am37 °FMostly cloudy.10 mph100%29.81 "Hg10 mi
3:01 am37 °FLight rain. Mostly cloudy.12 mph100%29.81 "Hg10 mi
2:31 am37 °FLight rain. Mostly cloudy.12 mph100%29.80 "Hg10 mi
1:53 am37 °FLight rain. Mostly cloudy.9 mph100%29.80 "Hg10 mi
1:17 am37 °FLight rain. Mostly cloudy.7 mph100%29.80 "Hg10 mi
1:05 am37 °FLight rain. Mostly cloudy.9 mph100%29.80 "Hg10 mi
12:38 am37 °FLight rain. Low clouds.9 mph100%29.80 "Hg9 mi
12:15 am37 °FLight rain. Overcast.12 mph100%29.80 "Hg9 mi
12:01 am37 °FLight rain. Overcast.13 mph100%29.80 "Hg8 mi
10:53 pm
Fri, May 26
37 °FMostly cloudy.13 mph100%29.79 "Hg10 mi
9:53 pm37 °FOvercast.13 mph100%29.79 "Hg10 mi
8:53 pm37 °FLight rain. Mostly cloudy.15 mph100%29.79 "Hg10 mi
7:53 pm37 °FLight rain. More clouds than sun.12 mph100%29.79 "Hg7 mi
6:53 pm36 °FLight rain. Fog.10 mph100%29.79 "Hg6 mi
5:53 pm35 °FLight rain. Fog.10 mph100%29.80 "Hg6 mi
4:53 pm35 °FLight rain. Fog.12 mph100%29.79 "Hg5 mi
3:53 pm35 °FLight rain. More clouds than sun.15 mph100%29.79 "Hg5 mi
2:53 pm36 °FLight rain. Cloudy.15 mph100%29.78 "Hg10 mi
1:53 pm36 °FLight rain. Cloudy.22 mph100%29.78 "Hg8 mi
12:53 pm36 °FLight rain. Fog.16 mph100%29.78 "Hg6 mi
12:05 pm36 °FLight rain. Fog.15 mph100%29.78 "Hg6 mi
11:53 am36 °FLight rain. Cloudy.16 mph100%29.78 "Hg9 mi
11:07 am35 °FLight rain. Mostly cloudy.17 mph100%29.78 "Hg10 mi
9:53 am34 °FLight rain. Cloudy.13 mph100%29.80 "Hg10 mi
Weather by CustomWeather, © 2017

See weather overviewHow to use our weather pages